www.pogodaiklimat.ru

Погода и климат >> Архив погоды >> Боливия >> San Borja


ПОГОДА в San Borja

  • Прогноз погоды в San Borja
  • Монитор погоды в San Borja
  • Климат города

АРХИВ ПОГОДЫ в San Borja

Время (UTC), дата Ветер
(напр.,м/с)
 
Видим.   Явления Облачность Т
(С)
Тd
(С)
f
(%)
Тe
(С)
Тes
(С)
Комфортность P
(гПа)
Po
(гПа)
Тmin
(С)
Tmax
(С)
R
(мм)
R24
(мм)
S
(см)
12 16.01 штиль 0 20 км 8/3 360 м
[Sc Ac trans Ci fib]
+23.0 +22.4 96 +31 +34 очень
душно
1013.0 990.3 +21.4 1
15 16.01 штиль 0 20 км 8/4 500 м
[Cu hum Ac lent]
+27.2 +22.5 76 +36 +43 очень
душно
1013.8 991.3
18 16.01 штиль 0 8000 м осадки на расстоянии 9/8 500 м
[Cb cap Ac trans]
+29.0 +23.6 73 +40 +43 очень
душно
1011.8 989.0
12 17.01 штиль 0 50 км {туман} 10/10 180 м
[Frnb]
+24.0 +23.7 98 +33 +33 очень
душно
1011.9 989.0 +22.8
15 17.01 С 3 50 км 8/5 500 м
[Cu Sc Ci fib]
+28.6 +24.2 77 +40 +47 очень
душно
1012.6 989.8
18 17.01 штиль 0 20 км 8/6 600 м
[Cu med, cong Ci fib]
+31.0 +24.4 68 +43 +53 опасность
перегрева
1009.9 987.7
21 17.01 СЗ 2 20 км 6/1 600 м
[Cu med, cong Ci fib]
+30.5 +24.4 70 +43 +46 опасность
перегрева
1006.1 983.8 +32.1
12 18.01 штиль 0 8000 м осадки на расстоянии {дождь} 9/6 300 м
[Sc Ac As]
+23.5 +22.9 96 +31 +32 очень
душно
1012.4 989.5 +22.7 28
15 18.01 СЗ 2 50 км 9/8 450 м
[Sc diur, vesp Ac trans]
+27.0 +24.3 85 +38 +40 очень
душно
1012.9 990.0
18 18.01 СЗ 5 50 км 8/5 600 м
[Cu med, cong Ci fib]
+30.6 +24.8 71 +43 +48 опасность
перегрева
1010.3 987.6
21 18.01 С 2 8000 м осадки на расстоянии 8/5 600 м
[Cb cap Ci]
+31.2 +25.7 73 +46 +48 опасность
перегрева
1007.2 984.4 +32.0
12 19.01 штиль 0 50 км 10/10 300 м
[Frnb]
+25.0 +24.6 98 +35 +35 очень
душно
1012.4 989.6 +24.4
15 19.01 штиль 0 8000 м осадки на расстоянии 9/8 500 м
[Cu Sc Ac trans]
+29.4 +25.6 80 +43 +47 опасность
перегрева
1013.6 990.7
18 19.01 В 2 8000 м осадки на расстоянии 8/5 600 м
[Cb cap Ci]
+30.2 +25.5 76 +44 +53 опасность
перегрева
1010.3 987.4
21 19.01 штиль 0 8000 м осадки на расстоянии 8/3 600 м
[Cb cap Ci]
+31.0 +25.6 73 +46 +49 опасность
перегрева
1007.8 984.8 +32.0
12 20.01 СВ 2 6000 м слабый дождь 9/8 300 м
[Sc Ac As]
+23.5 +23.2 98 +31 +32 очень
душно
1013.3 990.9 +22.0 18
15 20.01 штиль 0 20 км 8/0 2000 м
[Ac trans Ci fib]
+27.7 +23.9 80 +38 +55 опасность
солнечного
удара
1012.6 990.3
18 20.01 С 2 50 км 8/5 600 м
[Cu med, cong Ci fib]
+31.2 +25.4 71 +45 +54 опасность
перегрева
1010.6 987.8
21 20.01 С 3 50 км 6/4 600 м
[Cu med, cong Ci fib]
+31.5 +24.2 65 +43 +45 опасность
перегрева
1006.6 983.8 +32.2
12 21.01 штиль 0 50 км 8/0
[Ci fib]
+25.7 +24.0 90 +35 +40 очень
душно
1010.3 987.5 +23.5
15 21.01 СЗ 5 50 км 4/4 600 м
[Cu med, cong]
+31.0 +25.2 71 +45 +51 опасность
перегрева
1010.8 988.0
18 21.01 С 4 50 км 4/4 600 м
[Cu med, cong]
+33.0 +25.1 63 +47 +54 опасность
перегрева
1008.3 985.4
21 21.01 С 3 50 км 4/4 600 м
[Cu med, cong]
+33.5 +24.7 60 +47 +49 опасность
перегрева
1004.6 981.6 +33.8
12 22.01 С 3 20 км 3/3 400 м
[Sc]
+25.8 +23.9 89 +35 +38 очень
душно
1009.9 987.6 +23.0
15 22.01 СЗ 4 20 км ясно +31.2 +23.9 65 +43 +55 опасность
перегрева
1007.9 985.9
18 22.01 СЗ 6 50 км 4/4 600 м
[Cu med, cong]
+33.4 +23.8 57 +45 +49 опасность
перегрева
1006.7 983.8
21 22.01 С 8 50 км 3/3 600 м
[Cu med, cong]
+33.2 +24.2 59 +45 +46 опасность
перегрева
1003.1 980.0 +34.0

 

Местоположение метеостанции San Borja (Боливия): широта -14.86 долгота -66.86 высота над уровнем моря 194 м.

В архиве по умолчанию представлена погода в San Borja за последнюю неделю. Архивные данные за месяц целиком и за предыдущие месяцы, начиная с января 2011 года, Вы можете получить, выбрав интересующий диапазон дат из раскрывающегося списка и нажав кнопку "Ввод!".

Внимание! Время в таблицах - всемирное. Для получения местного времени необходимо прибавить поправку, которая в San Borja равна -4 ч.

Смотрите также архив погоды в соседних городах и на ближайших метеорологических станциях:

Погода в Santa Rosa (Боливия) (77 км)
Погода в Reyes (Боливия) (83 км)
Погода в Rurrenabaque (Боливия) (87 км)
Погода в San Ignacio De Moxo (Боливия) (136 км)
Погода в Santa Ana (Боливия) (197 км)
Погода в Baures (Боливия) (197 км)
Погода в Trinidad (Боливия) (210 км)
Погода в Ovejuyo (Боливия) (224 км)
Погода в La Paz (Боливия) (232 км)
Погода в San Ramon (Боливия) (291 км)

Пояснения к столбцам:

Ветер - указаны скорость ветра в м/с - средняя за 10 мин, порывы в срок и между сроками (в фигурных скобках) и направление, откуда дует ветер: С - северный, СВ - северо-восточный, В - восточный, ЮВ - юго-восточный, Ю - южный, ЮЗ - юго-западный, З - западный, СЗ - северо-западный.
Видимость - горизонтальная дальность видимости в метрах или километрах. При видимости от 1 до 10 км при отсутствии осадков обычно наблюдается дымка, при ухудшении видимости до 1 км и менее - туман. В сухую погоду видимость может ухудшаться дымом, пылью или мглою.
Явления - указаны атмосферные явления, наблюдавшиеся в срок или в последний час перед сроком; фигурными скобками обозначены явления, наблюдавшиеся между сроками (за 1-3 часа до срока); квадратными скобками обозначены град или гололедные отложения с указанием их диаметра в мм.
Облачность - указаны через наклонную черту общая и нижняя облачность в баллах и высота нижней границы облаков в метрах; квадратными скобками обозначены формы облаков: Ci - перистые, Cs - перисто-слоистые, Cc - перисто-кучевые, Ac - высококучевые, As - высокослоистые, Sc - слоисто-кучевые, Ns - слоисто-дождевые, Cu - кучевые, Cb - кучево-дождевые. Подробнее классификацию облаков см. в Атласе облаков (PDF).
T - Температура воздуха - температура, измеренная на высоте 2 м над землей.
Td - Температура точки росы - температура, при понижении до которой содержащийся в воздухе водяной пар достигнет насыщения.
f - Относительная влажность воздуха - влажноcть воздуха, измеренная на высоте 2 м над землей.
Te - Эффективная температура - температура, которую ощущает одетый по сезону человек в тени. Характеристика душности погоды. При расчете учитывается влияние влажности воздуха и скорости ветра на теплоощущения человека.
Tes - Эффективная температура на солнце - температура, которую ощущает человек, с поправкой на солнечный нагрев. Характеристика знойности погоды. Зависит от высоты солнца над горизонтом, облачности и скорости ветра. Ночью, в пасмурную погоду, а также при ветре 12 м/с и более поправка равна нулю.
P - Атмосферное давление - приведенное к уровню моря атмосферное давление.
Po - Атмосферное давление - измеренное на уровне метеостанции атмосферное давление.
Tmin - Минимальная температура - минимум температуры воздуха на высоте 2 м над землей.
Tmax - Максимальная температура - максимум температуры воздуха на высоте 2 м над землей.
R - Количество осадков - Количество выпавших осадков за период времени, мм. При наведении курсора мыши на число - период времени, за который выпало указанное количество осадков.
R24 - Количество осадков - Количество выпавших осадков за 24 часа, мм.
S - Снежный покров - Высота снежного покрова, см. При наведении курсора мыши на число - состояние снежного покрова и степень покрытия местности в баллах.